Theta_e
321 321 321 322 322 322 323 324 324 324 325 325 325 325 326 326 325 313 305 312 317 330 323 310 308 306 305 304 304 300 290 288 290 292 293 295 294 296 296 295 296 300 297 297 299
320 320 320 320 321 321 322 322 322 322 323 324 325 325 325 325 313 307 320 333 333 331 310 305 303 304 300 301 301 297 289 291 295 295 293 295 295 295 293 294 294 296 296 298 299
320 320 320 319 320 320 321 321 321 321 322 323 324 324 325 322 306 305 330 335 332 328 310 307 305 304 298 299 299 297 292 296 298 298 297 296 294 297 294 293 295 296 297 297 295
320 319 319 318 318 319 320 320 320 320 321 322 322 323 324 314 290 308 329 331 331 313 308 304 302 299 297 296 300 294 298 298 300 300 297 295 296 295 295 300 299 298 297 296 295
320 319 318 317 318 318 319 319 320 320 320 321 322 323 314 301 301 314 326 326 316 310 305 303 301 299 296 297 297 296 297 299 300 299 297 298 296 295 295 298 298 299 297 296 297
319 318 317 317 317 317 318 319 319 321 320 320 321 322 303 293 306 313 311 311 308 305 303 303 301 301 298 297 296 295 297 297 297 298 297 297 295 296 300 297 298 298 297 295 297
319 318 317 317 317 317 318 318 319 320 320 320 321 319 306 298 307 308 308 306 305 304 301 302 302 300 297 296 299 296 294 294 296 296 295 296 293 293 301 296 297 297 296 297 296
319 318 317 317 317 318 318 319 319 320 320 320 322 312 296 308 304 305 304 303 303 303 303 303 302 300 297 298 295 291 290 287 292 294 295 295 290 295 298 296 297 296 295 295 297
318 318 317 317 317 318 319 319 319 319 320 322 311 304 297 312 303 305 304 302 303 303 302 305 301 296 296 290 287 286 284 285 290 295 293 292 290 295 296 294 295 296 294 295 296
319 318 317 317 317 318 319 319 317 316 317 318 312 297 301 300 305 303 301 304 300 300 299 298 295 290 290 287 283 284 283 286 287 291 291 289 291 296 296 293 293 294 292 292 295
319 319 318 317 318 319 315 306 297 296 302 295 297 296 300 304 304 301 302 302 301 296 290 293 288 286 291 291 290 286 285 285 288 292 290 290 291 294 298 294 292 294 297 298 296
319 319 318 318 318 318 308 302 300 300 292 299 299 300 302 303 298 301 303 297 296 291 292 289 286 292 292 291 291 289 288 287 291 293 289 290 290 294 294 296 298 297 296 297 298
319 318 318 317 317 310 303 301 305 304 292 294 297 295 297 302 297 297 300 296 291 289 290 290 291 295 292 290 289 288 287 288 288 289 288 286 287 288 292 295 297 296 297 298 299
319 318 317 317 310 306 302 304 305 303 283 288 293 295 298 299 292 297 297 295 291 290 289 289 293 292 290 289 291 287 291 290 287 284 283 285 282 285 289 291 293 294 297 297 298
318 318 318 316 306 305 306 306 304 295 277 291 292 300 298 292 292 292 294 294 288 289 289 288 288 288 288 291 291 290 289 288 286 283 282 281 281 285 288 287 291 294 295 296 298
318 318 317 312 308 309 309 306 300 285 279 288 292 291 290 292 291 291 291 293 291 288 288 288 289 290 290 290 290 289 287 285 283 282 279 283 283 283 284 288 290 294 295 296 298
317 318 314 314 308 309 306 305 295 282 291 288 288 290 289 288 289 288 287 286 285 282 281 284 286 288 290 286 287 287 285 278 275 274 278 284 280 288 289 290 291 293 294 295 296
314 317 315 316 311 309 308 298 288 293 289 294 291 289 287 289 290 288 285 283 286 284 282 281 282 286 289 289 286 286 286 281 273 278 282 281 279 285 291 293 293 293 294 292 291
313 315 313 314 311 311 302 290 292 294 297 297 298 293 288 288 290 288 284 284 287 288 285 282 283 287 288 288 289 283 282 288 281 273 273 282 285 289 288 290 291 291 290 290 290
307 310 310 314 312 307 297 293 296 299 299 299 293 294 289 289 292 288 286 288 288 289 292 288 284 290 285 286 285 286 287 281 280 275 274 280 279 285 287 290 289 289 289 289 290
306 301 307 311 310 300 290 293 297 301 301 297 295 294 294 293 294 293 291 291 291 289 291 289 287 288 285 283 285 283 283 283 283 282 280 278 282 288 287 287 288 288 290 290 289
303 293 308 310 296 296 293 295 298 296 299 298 297 296 294 294 292 293 294 295 297 293 291 291 288 283 286 287 286 286 286 287 282 281 280 282 283 294 294 294 293 294 291 291 291
296 297 307 307 290 292 294 294 297 295 295 295 295 297 297 294 290 294 295 299 299 296 293 293 287 283 283 287 289 283 287 287 286 286 282 280 282 295 295 295 295 292 294 296 292
293 288 297 299 299 294 292 292 292 296 295 296 295 296 294 291 294 291 292 296 297 297 298 296 289 287 282 286 288 285 285 285 285 281 282 283 285 289 292 293 295 296 296 296 294
289 286 292 287 290 292 293 292 290 290 295 296 293 293 291 288 289 289 292 290 292 295 296 294 286 287 288 290 290 289 289 289 287 287 282 285 285 290 292 294 295 297 296 295 292
286 285 288 286 287 288 291 288 289 291 291 290 290 290 288 286 287 285 285 286 286 289 287 290 284 286 285 287 286 285 288 288 289 288 288 288 287 294 296 297 295 296 297 296 295
287 291 288 283 282 280 282 284 286 286 288 291 285 283 283 285 284 285 286 287 287 285 284 283 283 282 279 284 283 279 285 286 287 290 289 284 289 290 289 291 293 293 288 288 289
Wind_Speed
15 15 15 16 15 15 15 14 14 13 13 13 12 12 11 8 7 2 6 8 6 13 5 5 1 1 2 2 2 3 4 3 6 3 4 1 3 1 2 2 3 7 4 2 7
13 14 15 15 16 15 16 16 16 15 14 14 14 13 12 9 2 7 7 7 10 13 6 7 4 3 0 2 1 5 4 9 6 3 4 3 5 4 2 4 5 5 1 4 10
12 13 14 15 16 16 15 16 15 16 16 15 15 14 12 6 3 8 5 9 11 10 5 6 4 5 2 3 4 5 7 6 6 4 4 3 3 5 6 8 9 11 8 9 7
9 11 13 14 15 16 16 15 16 15 16 15 16 15 13 1 6 2 7 9 9 5 6 5 4 5 4 6 6 3 9 7 6 4 2 4 2 5 10 19 8 13 5 10 12
7 7 10 13 15 16 17 17 16 15 15 14 14 13 4 1 11 5 6 6 4 6 7 7 6 6 5 5 2 6 6 7 7 8 5 5 11 7 13 14 9 9 8 13 15
8 7 9 12 14 16 17 18 19 17 16 13 11 8 1 5 2 8 9 6 5 5 5 7 7 7 4 5 6 2 5 7 6 9 5 7 7 6 21 4 12 11 14 12 17
8 8 9 11 14 16 18 19 20 18 17 15 9 2 2 15 0 7 9 5 3 4 4 4 4 5 2 3 2 3 8 7 8 6 9 6 9 13 26 1 10 12 12 10 19
9 9 10 12 14 16 19 21 20 19 18 12 6 3 8 1 4 4 2 0 2 2 2 2 2 1 2 4 7 2 1 5 1 7 5 9 15 13 14 7 17 13 12 11 14
9 10 11 13 14 17 20 23 22 16 6 5 4 5 9 1 2 5 5 2 3 3 4 3 3 3 2 3 4 2 6 8 13 10 5 7 11 10 6 9 13 14 11 12 14
9 9 11 13 15 18 22 22 6 3 2 3 2 2 3 6 3 3 3 6 3 5 3 3 4 2 2 4 10 9 6 6 8 4 4 6 17 16 10 7 13 13 11 11 14
8 9 10 12 15 19 13 5 5 2 2 9 8 6 3 2 2 3 3 5 4 3 6 3 5 10 22 15 7 2 6 7 9 10 5 11 16 19 23 9 12 16 20 18 17
8 8 10 12 14 19 3 5 3 3 10 7 12 9 6 6 5 6 8 8 6 8 6 2 10 20 7 5 10 12 17 20 15 17 7 16 23 19 11 21 21 19 20 20 19
9 7 7 10 13 4 2 3 2 2 4 11 7 6 6 10 6 5 10 4 5 7 9 17 9 13 11 7 7 14 14 19 17 6 6 10 19 12 14 17 21 15 19 17 22
10 8 5 10 3 3 2 1 0 3 3 9 4 3 1 6 5 2 3 5 4 12 8 9 10 12 9 8 14 19 13 13 9 4 13 4 27 6 8 13 11 15 17 19 23
9 10 6 2 1 2 2 1 2 1 8 5 1 3 2 6 3 4 2 4 4 4 6 11 5 7 10 22 11 18 4 6 3 4 6 3 7 3 8 8 12 12 16 17 18
9 9 7 3 2 5 2 2 2 2 10 5 1 2 2 3 2 1 4 4 1 3 5 11 2 6 11 6 10 3 4 3 5 1 12 11 10 3 7 10 7 10 14 15 18
6 7 7 3 3 5 3 2 2 7 4 4 4 4 4 5 3 5 5 7 7 3 5 3 7 4 5 4 2 3 6 4 4 1 15 9 8 21 8 8 11 14 14 13 14
12 3 8 4 4 3 4 3 12 6 7 4 3 4 5 6 5 4 4 4 6 2 2 2 17 10 7 11 10 12 12 10 9 13 21 7 13 13 12 12 12 10 13 9 7
11 1 2 4 6 2 2 5 10 7 7 4 8 5 6 3 5 5 8 7 8 16 10 6 17 3 3 3 8 3 7 11 3 2 2 9 16 9 5 8 9 11 12 13 10
2 3 5 9 10 3 5 15 7 5 3 3 9 6 7 4 0 2 5 4 6 12 10 4 12 11 2 3 0 7 3 2 1 5 9 14 7 16 7 9 8 10 12 10 7
3 3 1 10 6 3 9 10 8 6 3 4 6 11 14 12 9 10 8 5 5 4 8 4 6 22 7 9 13 2 5 6 3 5 14 16 17 8 10 4 8 8 8 10 6
3 5 5 9 5 3 13 9 5 7 6 9 5 14 17 16 21 16 20 14 7 4 5 3 2 6 20 6 5 5 15 14 12 15 7 10 14 27 24 19 15 19 7 7 6
2 3 4 3 8 11 5 7 7 10 8 6 7 8 14 20 14 15 15 11 9 4 5 7 4 6 5 9 10 10 13 13 9 14 22 21 20 27 27 25 20 11 13 17 13
3 3 3 2 7 10 16 19 19 7 10 8 10 10 16 20 21 15 19 8 9 17 14 7 10 17 21 19 3 6 9 9 15 16 20 21 26 28 31 29 30 19 18 18 12
2 5 2 4 10 13 14 12 19 20 8 4 5 19 18 18 20 20 17 9 11 15 9 9 19 18 22 27 27 28 28 29 29 28 26 26 29 27 30 33 30 24 18 15 9
2 3 4 5 5 5 9 17 18 16 12 9 9 5 4 5 7 10 6 2 7 7 10 8 9 15 23 21 23 29 31 34 34 31 31 30 30 26 32 29 25 28 26 21 11
3 1 2 4 3 0 5 4 4 5 2 5 5 5 8 6 11 12 12 12 14 14 20 11 12 18 25 9 24 19 22 30 33 28 29 28 28 17 17 20 23 16 20 19 19
Wind_Direction
24 19 16 11 8 3 0 358 354 351 350 345 345 342 335 325 303 192 238 224 185 168 152 125 176 211 74 305 180 93 67 239 247 222 262 287 240 264 335 155 226 208 178 295 124
19 15 8 5 359 356 353 351 347 344 343 342 341 340 337 332 230 235 256 169 146 149 127 152 173 148 3 237 238 111 145 225 219 217 226 239 205 225 209 225 241 275 266 85 136
8 5 3 357 352 347 345 342 341 338 338 338 337 336 333 320 314 243 165 164 161 174 149 162 128 150 223 156 204 187 213 222 262 245 201 227 240 202 195 253 214 212 219 163 170
352 352 350 346 342 338 334 332 330 330 330 332 333 333 326 192 287 200 170 172 171 176 138 164 164 175 209 211 205 212 237 223 262 249 286 248 257 239 196 243 205 226 180 167 188
325 336 336 336 332 329 325 322 320 320 322 325 328 334 340 303 250 153 154 168 156 155 179 178 171 178 203 208 269 220 250 236 254 277 259 285 243 243 259 247 240 239 185 193 202
322 328 322 326 328 322 319 316 315 314 314 313 319 330 193 238 191 156 154 148 202 180 193 168 201 204 227 226 189 259 272 272 268 257 241 215 271 137 269 230 235 242 231 209 208
310 310 312 313 321 319 314 309 306 303 303 302 294 180 252 239 249 161 159 194 193 183 196 220 172 160 173 275 292 310 306 304 235 231 234 167 287 224 246 171 270 247 244 233 220
301 304 306 308 310 310 308 305 302 297 294 282 213 160 241 7 116 140 178 93 80 82 67 26 80 167 197 289 357 316 340 308 264 138 245 147 261 243 250 215 257 259 256 240 246
294 302 303 306 311 311 310 307 303 293 273 157 138 158 258 101 191 214 152 186 101 55 54 77 91 183 11 123 352 284 237 221 306 208 147 185 253 260 235 199 253 265 257 254 261
287 292 298 305 311 313 316 311 283 41 106 200 272 48 252 227 193 149 154 142 128 105 65 111 65 134 359 122 227 218 220 246 244 245 192 231 252 274 270 203 239 261 263 257 256
285 290 294 303 314 319 337 0 7 357 351 192 201 216 201 161 119 163 158 128 113 104 181 211 126 201 228 209 221 202 221 239 254 268 233 232 246 250 267 258 248 250 258 253 245
280 288 297 307 315 319 355 67 172 209 304 257 250 275 254 172 196 210 131 155 157 195 151 155 207 221 234 204 227 246 258 262 271 263 206 261 258 261 250 263 258 253 256 252 253
270 272 291 304 315 359 13 129 264 145 252 286 215 201 235 163 226 208 149 146 169 173 203 226 224 222 225 233 231 227 238 253 259 305 235 286 273 256 248 255 265 251 245 255 251
272 276 288 309 13 348 311 271 143 140 317 275 255 247 72 145 229 130 198 164 197 220 207 242 234 210 204 226 211 261 226 256 260 302 278 112 293 229 243 244 245 250 256 248 256
245 246 220 159 280 322 226 265 132 70 309 276 240 344 339 153 108 16 58 26 217 187 144 240 192 194 206 230 186 253 225 252 226 222 322 208 268 145 200 249 249 244 242 255 255
280 255 176 151 141 235 209 148 159 26 249 301 314 59 78 16 27 61 86 59 289 261 227 238 218 202 208 183 198 131 88 26 61 89 266 191 203 6 175 211 252 254 253 246 257
308 266 168 162 255 164 176 27 348 215 303 239 226 147 211 208 213 177 157 166 189 282 239 292 218 209 160 235 137 153 101 294 314 42 253 185 224 258 272 231 219 240 244 247 257
328 179 195 211 168 214 70 102 226 181 246 348 129 126 208 151 247 166 128 235 243 188 293 255 296 164 175 201 194 209 178 190 205 258 273 139 247 265 223 233 236 261 265 290 273
317 242 196 193 166 81 127 225 218 195 200 251 320 257 216 205 197 157 208 219 221 187 202 192 267 157 176 184 156 182 188 229 309 67 22 244 269 282 234 293 294 300 292 269 261
318 254 198 164 153 131 216 239 240 208 348 327 259 204 227 182 320 237 186 196 243 195 219 260 278 283 0 359 268 186 191 63 220 193 244 268 260 266 300 284 286 351 326 304 319
259 240 218 136 127 200 222 230 248 209 196 212 257 271 277 261 212 246 217 272 230 250 186 185 169 272 130 197 229 169 228 223 201 193 248 257 268 239 197 156 334 316 321 293 299
251 245 157 153 179 207 233 237 222 213 196 244 253 255 260 277 271 257 243 223 200 179 213 176 161 246 266 271 276 256 257 232 238 243 222 253 257 282 264 282 289 283 269 262 249
249 268 205 232 220 221 220 251 241 234 217 214 218 234 261 254 268 253 262 271 235 237 212 182 209 272 260 293 235 219 230 238 261 267 247 249 252 256 272 273 265 252 258 262 256
292 265 191 237 246 245 241 242 240 215 242 234 260 256 267 267 256 260 260 236 251 258 251 165 227 237 251 248 227 215 211 212 246 255 260 252 261 268 272 271 273 264 267 265 260
250 250 303 214 232 242 247 272 264 261 230 216 241 236 243 265 266 267 280 344 335 314 268 226 243 232 248 255 254 259 260 254 247 237 234 239 248 247 257 265 272 287 280 275 262
275 289 348 307 298 270 236 238 251 263 241 247 230 297 322 267 305 308 357 299 264 309 339 331 295 289 270 253 241 250 255 262 259 256 261 263 260 257 261 266 276 280 284 289 293
278 303 306 269 309 289 241 245 273 22 252 286 40 343 275 298 330 302 295 270 255 267 285 269 274 283 279 284 302 285 270 251 254 264 264 262 266 350 342 320 306 331 39 15 357